Simultaneous Nadir Overpasses (SNOs) Predictions

Prediction of SNOs between METOP-B and NOAA-19 Satellite Orbit:

Table of predicted SNOs for the next 14.0 days since TLE Epoch: 12/12/2014
Index Date (METOP-B) Time (METOP-B) Lat,Lon (METOP-B) SZA (METOP-B ) Date (NOAA-19) Time (NOAA-19) Lat,Lon (NOAA-19) SZA (NOAA-19 ) Distance(km) Time Diff (sec)
1 12/16/2014 04:56:19 75.00, 103.45 98.23 12/16/2014 04:55:12 75.02, 100.42 98.28 87.38 67
2 12/16/2014 05:47:13 -74.43, -90.79 82.34 12/16/2014 05:46:06 -74.46, -90.77 82.30 3.61 67
3 12/16/2014 06:37:52 74.45, 76.60 97.69 12/16/2014 06:37:03 74.44, 76.55 97.68 1.86 49
4 12/16/2014 07:28:35 -74.41,-116.18 82.36 12/16/2014 07:28:08 -74.40,-116.13 82.36 1.45 27
5 12/16/2014 08:19:15 74.38, 51.08 97.62 12/16/2014 08:19:05 74.39, 51.18 97.63 3.07 10
6
